Temperature
17 17 17 16 16 16 16 16 16 16 16 16 16 16 16 16 15 15 15 15 15 15 15 15 15 15 15 15 15 15 15 15 14 14 14 14 14 15 14 14 14 14 14
17 17 16 16 16 16 16 15 15 15 15 15 15 15 15 15 15 15 15 15 15 15 15 15 15 15 15 14 14 14 14 14 14 14 14 14 14 14 14 14 14 14 14
17 17 16 16 16 16 15 15 15 15 15 15 15 15 15 15 15 15 15 15 14 14 14 14 14 14 14 14 14 14 14 14 14 14 14 14 14 14 14 14 14 14 14
17 16 16 16 16 16 15 15 15 15 15 15 14 14 15 15 15 15 15 14 14 14 14 14 14 14 14 14 14 14 13 13 13 13 13 13 13 13 13 13 13 13 13
16 16 16 16 16 15 15 15 15 15 14 14 14 14 14 14 14 14 14 14 14 14 14 14 14 13 13 13 13 13 13 13 13 13 13 13 13 13 13 13 12 13 13
16 16 16 16 15 15 15 15 15 14 14 14 14 14 14 14 14 14 14 14 14 14 14 14 13 13 13 13 13 13 13 13 13 13 13 13 12 12 12 12 12 12 12
16 16 16 15 15 15 15 15 15 14 14 14 14 14 13 13 14 14 13 13 13 13 13 13 13 13 13 13 13 13 13 13 12 12 12 12 12 12 12 12 12 12 12
16 16 15 15 15 15 15 14 14 14 14 14 13 13 13 13 13 13 13 13 13 13 13 13 13 13 12 12 12 12 12 12 12 12 12 12 12 12 12 12 12 12 11
16 15 15 15 15 15 14 14 14 14 13 13 13 13 13 13 13 13 13 13 13 13 12 12 12 12 12 12 12 12 12 12 12 12 12 12 12 12 11 11 11 11 11
15 15 15 15 14 14 14 14 13 13 13 13 13 13 13 13 13 12 12 12 12 12 12 12 12 12 12 12 12 12 12 12 12 11 11 11 11 11 11 11 11 11 11
15 15 14 14 14 14 14 13 13 13 13 13 13 13 13 12 12 12 12 12 12 12 12 12 12 11 11 11 11 11 11 11 11 11 11 11 11 11 11 11 11 11 10
14 14 14 14 14 14 13 13 13 13 13 13 12 12 12 12 12 12 12 12 12 11 11 11 11 11 11 11 11 11 11 11 11 11 11 11 10 10 10 10 10 10 10
14 14 14 14 13 13 13 13 12 12 12 12 12 12 12 12 12 12 12 11 11 11 11 11 11 11 11 11 11 11 11 10 10 10 10 10 10 10 10 10 10 10 10
14 14 13 13 13 13 13 12 12 12 12 12 12 12 11 11 11 11 11 11 11 11 11 11 11 11 10 10 10 10 10 10 10 10 10 10 10 10 10 10 10 9 9
13 13 13 13 13 12 12 12 12 12 12 12 12 11 11 11 11 10 10 10 10 10 10 10 10 10 10 10 10 10 10 10 9 9 9 9 9 9 9 9 9 9 9
13 13 13 13 12 12 12 12 12 12 11 11 11 11 11 11 11 10 10 10 10 10 10 10 10 10 9 9 9 9 9 9 9 9 9 9 9 9 9 9 8 8 8
13 13 12 12 12 12 11 11 11 11 11 11 11 11 11 10 10 10 10 10 10 10 9 9 9 9 9 9 9 9 9 9 9 8 8 8 8 8 8 8 8 8 8
13 12 12 12 12 11 11 11 11 11 11 11 11 10 10 10 10 10 10 10 9 9 9 9 9 9 9 9 9 8 8 8 8 8 8 8 8 8 8 8 8 8 8
12 12 12 11 11 11 11 11 11 10 10 10 10 10 10 10 10 10 10 9 9 9 9 9 9 8 8 8 8 8 8 8 8 8 8 8 8 8 8 8 8 8 8
12 11 11 11 11 11 11 10 10 10 10 10 10 10 10 9 9 9 9 9 9 9 8 8 8 8 8 8 8 8 8 8 8 8 8 8 8 8 8 7 7 7 7
11 11 11 11 11 10 10 10 10 10 10 10 10 9 9 9 9 9 9 9 9 8 8 8 8 8 8 8 8 8 8 7 7 7 7 7 7 7 7 7 7 7 7
11 11 11 10 10 10 10 10 10 9 9 9 9 9 9 9 9 9 8 8 8 8 8 8 8 8 8 8 7 7 7 7 7 7 7 7 7 7 7 7 7 7 7
11 11 10 10 10 10 10 9 9 9 9 9 9 9 9 9 8 8 8 8 8 8 8 8 8 8 7 7 7 7 7 7 7 7 7 7 7 7 7 7 7 7 7
11 10 10 10 10 9 9 9 9 9 9 9 8 8 8 8 8 8 8 8 8 8 8 8 7 7 7 7 7 7 7 7 6 6 6 6 6 6 6 6 6 6 6
10 10 10 9 9 9 9 9 9 8 8 8 8 8 8 8 8 8 8 8 8 7 7 7 7 7 7 7 7 7 6 6 6 6 6 6 6 6 6 6 6 6 6
10 9 9 9 9 9 9 8 8 8 8 8 8 8 7 7 7 7 7 7 7 7 7 7 7 7 7 7 6 6 6 6 6 6 6 6 6 6 6 6 6 6 6
Wind_Speed
1 1 2 1 1 2 2 1 2 2 2 2 2 3 3 3 3 2 2 2 2 1 1 1 2 1 1 1 1 1 2 2 2 2 2 2 2 2 2 2 2 3 3
2 2 1 1 2 2 2 2 2 2 2 2 2 2 2 3 3 3 3 3 2 2 2 1 2 2 2 2 1 1 1 2 2 3 3 2 2 2 2 2 2 2 2
2 2 2 1 1 1 1 2 2 2 2 2 2 2 2 2 2 2 2 2 2 2 2 2 2 1 2 2 1 1 1 1 1 2 3 2 2 2 2 2 2 2 2
2 2 1 0 1 1 1 1 1 1 2 2 2 2 2 2 2 2 2 2 2 2 2 2 2 2 2 2 2 2 1 1 1 1 1 2 2 2 1 2 2 2 3
2 1 1 1 0 1 1 1 1 1 1 1 2 2 2 1 2 2 1 2 2 2 3 2 2 2 2 2 2 2 2 1 1 1 1 1 2 1 2 2 2 2 3
2 1 1 0 1 1 1 1 1 2 2 2 1 2 2 2 2 2 1 2 2 2 3 3 3 3 3 3 2 2 3 3 3 2 2 2 3 3 2 2 2 2 3
2 1 0 0 0 1 1 1 1 1 1 1 2 2 2 3 3 2 2 2 2 2 3 3 3 3 3 3 3 3 2 1 3 3 3 4 4 4 3 3 3 3 3
1 1 1 1 1 1 1 1 1 1 0 1 2 2 3 4 4 3 3 2 2 3 3 3 2 3 3 2 2 2 2 2 2 2 3 4 4 3 4 3 3 2 2
1 1 1 1 1 1 1 2 2 1 1 1 1 2 3 4 5 4 2 1 2 3 3 3 2 3 4 3 2 2 2 3 2 1 2 3 2 2 2 2 1 1 1
1 1 1 1 2 2 2 2 1 1 1 2 2 2 3 3 5 4 2 1 2 3 3 3 4 4 4 3 2 2 2 3 2 2 3 3 3 1 1 3 3 3 2
1 1 1 1 2 3 2 1 1 1 1 1 2 3 3 3 4 4 2 1 1 2 3 4 4 5 5 5 3 2 3 2 1 1 2 2 2 1 1 1 2 3 3
1 0 1 1 2 1 1 1 1 1 1 2 2 3 3 3 3 4 3 2 2 2 3 3 4 6 6 6 3 3 3 1 1 1 1 2 2 2 2 1 1 2 2
1 0 1 2 2 1 1 1 1 1 1 2 2 3 4 3 3 4 4 4 4 2 3 4 5 6 5 4 4 3 1 1 1 1 2 2 2 2 2 1 1 0 1
1 1 1 1 2 2 1 1 1 1 2 2 2 3 3 4 3 3 3 3 3 3 3 4 5 5 3 3 3 2 1 0 1 1 2 2 2 1 1 1 1 1 1
1 0 1 1 1 2 2 1 2 3 3 3 3 3 3 4 5 4 2 3 3 3 3 2 3 3 4 3 3 3 2 1 1 1 1 2 2 2 2 1 1 0 1
1 1 1 1 1 1 2 3 3 3 4 4 4 3 3 5 6 5 4 4 4 3 1 2 3 3 3 3 3 3 2 2 2 2 2 2 2 2 2 2 1 1 2
3 3 2 2 2 1 1 2 3 4 4 3 3 3 4 5 4 3 3 3 2 0 0 2 3 3 4 4 3 3 3 3 2 2 2 2 2 2 2 2 2 2 3
3 3 3 2 2 2 2 2 2 3 4 4 4 4 5 5 4 3 3 1 2 1 2 3 3 4 4 4 4 4 4 3 3 2 3 3 3 3 3 3 3 3 4
2 2 2 2 2 2 2 2 2 3 3 4 4 4 4 3 3 2 1 1 2 3 3 3 4 4 4 4 4 4 4 4 4 3 3 3 3 3 3 3 3 4 3
2 3 2 1 2 2 2 2 2 2 3 3 3 4 3 2 2 3 2 2 3 4 4 4 4 4 4 4 4 3 4 4 4 4 4 4 4 4 4 4 3 3 3
1 2 2 1 1 1 2 2 3 3 3 3 3 3 3 3 4 4 3 3 4 4 5 4 4 4 4 4 4 4 4 4 4 4 4 4 4 4 4 4 4 3 3
1 1 1 1 1 1 2 2 2 2 2 3 3 3 3 2 3 4 4 4 4 4 5 5 5 4 4 4 4 4 5 5 5 5 5 5 4 4 4 4 4 3 3
2 1 1 1 1 1 1 1 1 2 2 3 3 3 3 3 3 4 4 5 5 5 4 4 4 4 4 4 4 4 5 6 6 6 5 5 5 4 4 4 4 4 4
1 1 1 1 0 0 1 1 1 2 2 3 3 3 3 3 4 5 5 5 5 5 5 4 4 6 7 5 5 5 6 6 6 5 6 5 5 5 4 4 5 5 5
1 1 1 1 1 1 1 1 1 2 2 3 3 3 4 4 4 5 5 5 5 5 6 5 5 5 7 8 7 7 7 7 6 5 5 5 6 6 5 5 5 5 5
2 1 1 1 1 1 1 1 2 2 3 3 3 3 4 4 5 5 5 5 5 5 5 5 6 7 8 7 8 7 6 6 6 6 5 5 5 5 5 5 6 6 6
Wind_Direction
79 82 73 62 64 62 54 30 26 27 37 37 33 35 26 20 21 33 22 20 14 345 329 304 288 275 274 272 250 225 222 213 233 275 285 294 277 289 296 282 276 261 261
131 112 93 59 58 53 29 15 25 23 20 25 38 36 15 11 16 23 12 9 4 339 320 313 304 307 304 292 270 248 237 227 217 265 297 307 288 277 290 296 307 281 262
122 110 81 45 31 18 0 1 23 28 26 32 36 19 0 359 2 354 348 345 350 334 325 305 299 302 297 301 279 258 255 246 234 237 276 292 292 287 308 313 311 305 284
119 110 92 348 334 333 344 9 23 44 41 29 17 0 349 351 349 337 343 345 339 330 324 314 306 281 263 263 265 256 238 219 210 214 259 279 282 290 291 298 309 308 293
131 133 222 271 350 12 17 23 36 41 33 29 18 7 357 353 343 340 330 333 325 328 329 325 318 304 285 273 265 249 218 208 207 219 247 273 287 290 272 261 271 294 286
140 186 236 43 38 3 341 18 31 27 25 32 8 359 351 340 340 334 319 304 306 300 311 322 327 335 330 314 295 263 229 216 218 223 233 247 264 266 271 262 265 284 284
152 184 27 65 360 312 316 16 360 7 32 10 345 341 321 318 329 313 307 291 294 292 297 310 326 340 348 342 352 349 321 268 207 206 226 245 251 247 235 242 243 257 264
159 202 229 206 252 282 341 324 311 307 323 318 328 325 316 324 337 325 314 306 310 307 304 299 307 322 337 349 6 3 339 310 254 221 228 246 250 242 222 225 229 249 274
196 234 237 219 232 264 284 279 279 299 313 320 326 318 311 318 333 334 348 328 325 321 322 326 326 323 333 352 4 341 329 318 309 304 279 280 285 255 194 165 177 197 267
237 246 242 211 219 240 254 261 273 279 283 307 328 327 323 325 338 341 355 351 336 328 330 332 339 332 326 321 312 308 301 297 311 329 331 331 328 318 194 195 201 207 232
228 227 254 240 230 234 248 258 289 301 322 328 332 334 336 330 333 341 337 336 301 312 322 325 324 328 321 310 295 271 266 286 308 312 328 335 344 347 303 238 219 211 219
166 208 274 285 271 258 249 280 287 282 328 326 332 332 331 328 332 337 339 322 315 302 305 314 318 327 325 316 302 285 290 307 1 349 334 322 325 322 310 294 266 232 230
111 264 298 318 323 312 252 261 285 279 285 302 309 313 317 323 324 330 333 326 320 308 301 310 318 322 324 324 321 319 355 45 30 329 297 290 293 297 309 313 316 320 344
162 279 314 337 339 339 315 264 247 264 270 278 284 290 301 313 316 325 332 330 330 319 312 321 324 329 336 337 345 350 4 12 219 274 287 298 318 332 334 316 302 327 331
173 255 331 336 328 326 316 291 264 257 245 245 255 258 274 294 293 291 302 310 316 316 327 338 353 354 355 348 343 343 343 344 313 299 298 312 313 311 308 303 272 263 266
198 238 242 258 291 303 319 328 325 281 283 253 236 238 257 262 290 300 298 295 298 317 356 334 327 325 322 317 316 321 321 312 303 297 294 296 297 297 301 305 289 255 262
207 227 237 242 257 272 284 298 312 325 321 297 282 271 259 278 291 290 290 298 304 11 311 298 301 303 304 302 296 289 288 292 288 291 297 298 292 287 286 283 271 267 269
224 228 228 231 238 245 252 260 264 280 304 312 308 294 291 287 281 273 264 313 327 318 271 280 288 295 296 295 294 292 291 296 297 291 289 292 291 284 279 274 267 267 267
225 236 233 230 238 245 251 255 261 264 274 290 305 314 308 302 295 283 231 249 279 289 284 282 284 288 291 292 291 292 292 291 292 288 284 279 272 270 273 271 270 269 267
239 244 242 231 243 252 254 255 261 266 272 279 285 291 312 329 318 313 291 268 267 273 275 276 279 281 285 288 288 288 290 291 291 284 283 280 274 263 262 264 263 265 268
239 259 259 234 241 250 254 263 267 264 267 277 283 288 271 267 277 284 283 275 268 269 271 272 275 277 280 284 281 277 277 280 280 278 279 278 274 270 266 264 260 253 260
200 211 208 215 233 250 266 274 274 272 277 286 298 309 304 280 282 285 286 287 282 275 272 269 271 274 273 272 274 272 271 273 276 276 276 275 271 269 268 263 262 261 252
177 190 221 254 252 257 275 293 287 281 283 287 292 301 302 292 288 289 291 294 294 292 287 275 272 279 282 276 269 265 268 272 271 266 267 269 266 260 259 264 264 266 258
176 182 200 248 280 263 275 290 293 294 299 303 302 298 295 294 293 292 290 292 294 297 297 288 276 276 279 284 283 277 274 276 275 265 260 260 261 260 257 256 258 259 257
182 176 181 200 220 243 267 288 297 302 302 301 304 303 301 299 297 295 293 291 293 294 296 291 285 283 283 283 286 289 291 282 272 269 261 255 255 253 254 254 255 257 256
173 180 196 213 232 248 257 268 280 290 294 298 298 296 298 301 301 301 300 298 296 295 296 294 291 287 287 285 286 295 292 285 279 272 260 256 253 253 252 250 252 249 252
Height
1519 1518 1517 1517 1517 1517 1517 1516 1517 1517 1516 1516 1516 1516 1516 1515 1515 1514 1513 1512 1511 1511 1510 1510 1509 1509 1508 1508 1508 1507 1507 1507 1506 1506 1506 1506 1506 1506 1506 1506 1506 1506 1507
1518 1518 1517 1517 1516 1516 1516 1516 1516 1516 1515 1515 1515 1515 1514 1514 1513 1512 1511 1511 1510 1509 1509 1508 1507 1506 1506 1505 1505 1505 1505 1505 1504 1503 1503 1503 1503 1503 1503 1503 1503 1503 1503
1518 1517 1517 1517 1516 1516 1515 1516 1515 1515 1514 1514 1514 1513 1513 1512 1512 1511 1510 1509 1509 1508 1507 1506 1505 1504 1504 1503 1503 1502 1502 1502 1501 1501 1500 1500 1500 1500 1500 1500 1500 1500 1500
1517 1517 1516 1516 1516 1515 1515 1515 1514 1514 1513 1513 1512 1512 1511 1511 1510 1510 1509 1508 1507 1506 1505 1504 1503 1502 1501 1501 1500 1500 1499 1499 1499 1498 1497 1497 1497 1497 1496 1496 1496 1496 1496
1517 1516 1516 1516 1515 1515 1514 1514 1513 1513 1512 1512 1511 1511 1510 1509 1509 1508 1507 1506 1505 1504 1503 1502 1501 1500 1499 1498 1498 1497 1497 1496 1496 1495 1495 1494 1494 1493 1493 1493 1493 1493 1493
1516 1516 1515 1515 1514 1514 1513 1513 1512 1511 1511 1510 1509 1509 1508 1508 1507 1506 1505 1504 1503 1502 1501 1500 1499 1498 1496 1495 1495 1494 1494 1493 1492 1492 1492 1491 1491 1491 1491 1491 1490 1490 1489
1515 1515 1515 1514 1513 1512 1512 1512 1511 1510 1510 1509 1508 1507 1506 1506 1505 1504 1503 1502 1501 1500 1499 1498 1497 1496 1494 1493 1491 1491 1490 1490 1490 1490 1489 1488 1488 1487 1487 1487 1487 1487 1486
1514 1514 1514 1513 1512 1512 1511 1511 1510 1509 1508 1508 1507 1506 1505 1504 1503 1502 1501 1500 1499 1498 1497 1495 1494 1493 1492 1490 1489 1488 1487 1486 1486 1486 1486 1486 1485 1485 1485 1484 1483 1483 1483
1514 1513 1513 1512 1512 1511 1510 1509 1509 1508 1507 1507 1506 1505 1504 1503 1502 1500 1500 1498 1497 1495 1494 1493 1491 1490 1489 1488 1486 1485 1484 1483 1483 1483 1483 1482 1482 1481 1481 1481 1480 1480 1479
1512 1512 1512 1511 1511 1510 1509 1509 1508 1507 1507 1506 1505 1504 1503 1501 1500 1499 1497 1496 1495 1493 1492 1490 1489 1487 1486 1485 1483 1482 1481 1480 1480 1479 1479 1479 1478 1477 1477 1477 1476 1476 1476
1511 1511 1511 1510 1510 1509 1508 1508 1507 1506 1505 1504 1503 1502 1501 1500 1498 1497 1495 1494 1492 1490 1489 1487 1486 1485 1483 1482 1480 1479 1478 1478 1477 1476 1476 1475 1475 1474 1474 1473 1473 1473 1473
1510 1510 1509 1509 1508 1507 1506 1506 1505 1504 1503 1503 1501 1500 1499 1498 1496 1495 1493 1492 1490 1488 1486 1485 1483 1482 1481 1479 1477 1476 1476 1475 1474 1473 1473 1472 1472 1471 1471 1470 1470 1470 1470
1508 1508 1507 1507 1506 1505 1504 1504 1503 1503 1502 1500 1499 1498 1496 1495 1494 1493 1491 1490 1488 1486 1485 1483 1481 1480 1478 1476 1475 1474 1472 1471 1471 1470 1470 1470 1469 1469 1468 1468 1468 1467 1467
1506 1506 1505 1504 1504 1503 1502 1502 1501 1500 1499 1498 1497 1496 1494 1493 1492 1490 1489 1488 1486 1485 1483 1481 1479 1477 1475 1474 1473 1471 1470 1469 1469 1468 1468 1467 1467 1466 1465 1465 1464 1464 1464
1504 1504 1503 1502 1502 1501 1501 1500 1499 1498 1498 1496 1495 1494 1492 1491 1490 1489 1487 1485 1484 1482 1481 1479 1477 1475 1473 1471 1471 1469 1468 1467 1467 1466 1465 1464 1464 1463 1462 1462 1461 1461 1461
1502 1501 1501 1500 1500 1499 1498 1498 1497 1497 1496 1494 1493 1492 1490 1490 1488 1487 1485 1484 1482 1480 1479 1476 1475 1473 1471 1470 1468 1467 1466 1465 1464 1464 1463 1462 1461 1460 1459 1459 1458 1458 1457
1500 1499 1499 1498 1498 1497 1496 1495 1494 1494 1493 1492 1491 1490 1489 1488 1486 1485 1483 1482 1480 1478 1477 1475 1473 1471 1470 1468 1467 1465 1464 1463 1462 1461 1460 1460 1459 1458 1457 1456 1455 1455 1454
1497 1497 1497 1496 1496 1495 1494 1493 1492 1490 1489 1489 1488 1488 1487 1485 1484 1483 1481 1479 1478 1476 1474 1473 1471 1470 1468 1466 1465 1463 1462 1461 1460 1459 1458 1457 1456 1455 1454 1453 1452 1452 1452
1495 1494 1494 1493 1493 1492 1491 1490 1489 1488 1487 1486 1485 1485 1484 1483 1481 1480 1478 1477 1475 1474 1472 1471 1469 1467 1466 1464 1463 1461 1460 1458 1457 1456 1455 1454 1454 1453 1452 1451 1450 1449 1449
1492 1491 1491 1490 1490 1489 1488 1487 1486 1485 1484 1483 1482 1481 1480 1479 1478 1477 1475 1474 1472 1471 1469 1468 1466 1465 1463 1461 1460 1458 1457 1455 1454 1453 1452 1451 1450 1450 1449 1448 1447 1446 1446
1489 1488 1487 1487 1487 1486 1485 1484 1484 1483 1481 1480 1480 1479 1478 1477 1475 1474 1473 1471 1470 1468 1466 1465 1463 1462 1460 1458 1457 1455 1453 1452 1451 1449 1448 1447 1447 1446 1445 1445 1444 1444 1443
1487 1486 1485 1484 1484 1483 1483 1482 1481 1480 1479 1478 1477 1476 1476 1474 1473 1472 1470 1469 1467 1465 1464 1462 1460 1458 1457 1455 1453 1451 1450 1448 1447 1446 1445 1444 1443 1442 1442 1441 1440 1440 1440
1485 1484 1483 1482 1482 1481 1480 1480 1479 1478 1477 1476 1475 1474 1473 1471 1470 1469 1467 1465 1464 1462 1460 1458 1456 1455 1453 1452 1450 1448 1446 1444 1443 1441 1440 1440 1439 1439 1438 1437 1437 1436 1436
1483 1482 1481 1480 1480 1479 1478 1477 1477 1476 1475 1474 1472 1471 1470 1468 1467 1465 1464 1462 1460 1459 1457 1455 1453 1451 1450 1448 1446 1444 1442 1440 1439 1437 1436 1436 1435 1435 1434 1433 1433 1432 1432
1481 1480 1479 1479 1478 1477 1476 1475 1474 1473 1472 1471 1470 1468 1467 1465 1464 1462 1460 1458 1457 1455 1453 1451 1449 1447 1445 1444 1442 1440 1438 1436 1435 1433 1432 1431 1431 1430 1430 1429 1429 1428 1428
1479 1478 1477 1477 1476 1475 1474 1473 1472 1471 1470 1468 1467 1466 1464 1462 1460 1458 1456 1455 1453 1451 1449 1447 1445 1443 1441 1439 1438 1436 1434 1432 1431 1429 1428 1427 1426 1425 1425 1425 1425 1424 1424